[[{"header":{"parameterUnit":"m.s-1","parameterCategory":1,"la1":30.2992,"la2":30.254,"lo1":-89.0895,"lo2":-89.0443,"dy":0.0025,"dx":0.0025,"nx":19,"ny":19,"refTime":"2026-05-05T03:00:00:Z","depth":0,"parameterNumber":2,"parameterNumberName":"U-component_of_WINDS"},"data":[0,0,0,0.29,0.2903,0.3077,0.3078,0.3279,0.328,0,0,0,0,0,0,0,0,0,0,0,0.2835,0.2836,0.29,0.2904,0.3077,0.3078,0.3278,0.328,0,0,0,0,0,0,0,0,0,0,0,0.2835,0.2836,0.2837,0.2904,0.3077,0.3078,0.3278,0.3155,0,0,0,0,0,0,0,0,0,0,0.299,0.2917,0.2836,0.2837,0.2905,0.3077,0.3078,0.3149,0.3162,0.319,0,0.3212,0,0.3249,0.3292,0.3293,0,0,0,0.2914,0.2906,0.2964,0.2837,0.2907,0.3076,0.3002,0.3157,0.3172,0.3208,0.3215,0.3223,0.3252,0.3293,0.3294,0.3421,0.3421,0,0,0.2904,0.286,0.2954,0.2973,0.2945,0.2996,0.3007,0.3166,0.3171,0.3216,0.3228,0.3255,0.3294,0.3296,0.3421,0.3421,0,0,0,0.287,0.2852,0.2908,0.2965,0.2997,0.3001,0.3013,0.3164,0.3186,0.323,0.3258,0.3295,0.3298,0.3421,0.3421,0.3382,0,0,0,0.2865,0.2832,0.2903,0.2877,0.2994,0.3083,0.3007,0.3175,0.3194,0.3257,0.3296,0.3299,0.3421,0.3421,0.3383,0.3372,0,0,0,0.2828,0.2828,0.2849,0.2875,0.2948,0.3081,0.3113,0.318,0.321,0.3293,0.33,0.3421,0.3421,0.3384,0.3374,0.3392,0,0,0,0.2777,0.2814,0.2847,0.2899,0.2946,0.3056,0.3112,0.3197,0.3263,0.3296,0.3421,0.3421,0.3384,0.3375,0.3392,0.3399,0.3398,0,0,0.2798,0.2815,0.2848,0.2884,0.2976,0.3033,0.312,0.3224,0.3273,0.3369,0.3372,0.3383,0.3374,0.3392,0.3405,0.3403,0,0,0,0.284,0.2863,0.2897,0.2958,0.3036,0.3103,0.3198,0.3236,0.3319,0.3313,0.3396,0.3392,0.3404,0.341,0.3409,0.3422,0.3421,0.3421,0.3421,0.2806,0.2865,0.2925,0.3004,0.3062,0.3158,0.321,0.3278,0.3323,0.3341,0.337,0.337,0.3375,0.3374,0.3387,0.3378,0.3378,0.3378,0.3378,0.2842,0.2884,0.294,0.3018,0.308,0.3146,0.3239,0.3268,0.3338,0.3354,0.3368,0.338,0.3371,0.3385,0.3375,0.3376,0.3376,0.3376,0.3377,0.2827,0.2857,0.2902,0.2994,0.3058,0.3138,0.3202,0.3257,0.3309,0.3323,0.3359,0.336,0.3367,0.3336,0.3336,0.3336,0.3336,0.3336,0.3336,0.2793,0.2845,0.2892,0.2977,0.3022,0.3088,0.3183,0.3229,0.3294,0.3329,0.333,0.3371,0.3358,0.3354,0.3336,0.3336,0.3336,0.3336,0.3336,0.2807,0.2812,0.2885,0.293,0.3033,0.3093,0.3161,0.325,0.3296,0.3325,0.3364,0.3345,0.3366,0.3368,0.3364,0.3351,0.3351,0.3351,0.3351,0.2794,0.281,0.2895,0.2963,0.3036,0.3105,0.3184,0.3258,0.3335,0.3367,0.3377,0.3377,0.3376,0.3398,0.3399,0.3396,0.3391,0.3391,0.3391,0.2806,0.2831,0.2888,0.2963,0.3047,0.3118,0.3195,0.327,0.3359,0.3394,0.3393,0.3391,0.3392,0.339,0.3425,0.3425,0.3422,0,0]},{"header":{"parameterUnit":"m.s-1","parameterCategory":1,"la1":30.2992,"la2":30.254,"lo1":-89.0895,"lo2":-89.0443,"dy":0.0025,"dx":0.0025,"nx":19,"ny":19,"refTime":"2026-05-05T03:00:00:Z","depth":0,"parameterNumber":3,"parameterNumberName":"V-component_of_WINDS"},"data":[0,0,0,4.1125,4.1124,4.1073,4.1073,4.1021,4.1021,0,0,0,0,0,0,0,0,0,0,0,4.1151,4.1152,4.1125,4.1124,4.1073,4.1073,4.1022,4.1021,0,0,0,0,0,0,0,0,0,0,0,4.1151,4.1152,4.1152,4.1124,4.1073,4.1073,4.1022,4.1055,0,0,0,0,0,0,0,0,0,0,4.1102,4.1138,4.1152,4.1152,4.1124,4.1073,4.1073,4.1056,4.1053,4.1052,0,4.1056,0,4.1038,4.1019,4.1019,0,0,0,4.1115,4.1141,4.1117,4.1152,4.1123,4.1073,4.1094,4.1054,4.105,4.1047,4.1055,4.1053,4.1037,4.1019,4.1019,4.1048,4.1048,0,0,4.1118,4.1148,4.112,4.1115,4.1127,4.1095,4.1092,4.1051,4.1061,4.1055,4.1051,4.1036,4.1018,4.1018,4.1047,4.1048,0,0,0,4.1132,4.115,4.1127,4.1118,4.1107,4.1094,4.109,4.1063,4.1053,4.1051,4.1036,4.1018,4.1018,4.1047,4.1047,4.1104,0,0,0,4.1133,4.1158,4.1129,4.1146,4.1109,4.1085,4.1103,4.1056,4.105,4.1036,4.1018,4.1018,4.1046,4.1047,4.1101,4.1125,0,0,0,4.1151,4.116,4.1157,4.1148,4.1127,4.1085,4.1072,4.1054,4.1041,4.1019,4.1017,4.1045,4.1047,4.1098,4.1121,4.114,0,0,0,4.1178,4.1208,4.1158,4.1186,4.1128,4.1121,4.1072,4.1065,4.1053,4.1018,4.1046,4.1047,4.1098,4.1118,4.1138,4.1162,4.1175,0,0,4.1232,4.1215,4.1229,4.1183,4.1193,4.1127,4.1143,4.1103,4.1073,4.1057,4.1057,4.1102,4.112,4.114,4.1241,4.1251,0,0,0,4.1256,4.1267,4.1263,4.1253,4.1224,4.12,4.1154,4.1138,4.1124,4.1072,4.1114,4.1124,4.1134,4.1144,4.1153,4.1159,4.1054,4.1054,4.1053,4.1375,4.1336,4.1356,4.131,4.1301,4.1253,4.1241,4.1211,4.1174,4.1184,4.1179,4.1245,4.1258,4.1265,4.1271,4.1189,4.119,4.119,4.119,4.145,4.1458,4.1407,4.1408,4.1366,4.1365,4.1319,4.1292,4.1284,4.1246,4.1253,4.1215,4.1278,4.1281,4.1194,4.1193,4.1193,4.1192,4.1192,4.1523,4.1519,4.1501,4.1482,4.1471,4.1423,4.1417,4.1378,4.1341,4.1348,4.1337,4.1336,4.1329,4.1346,4.1346,4.1347,4.1347,4.1347,4.1347,4.1604,4.1582,4.1583,4.1555,4.1542,4.1521,4.1473,4.1458,4.1432,4.1404,4.1404,4.1364,4.1292,4.1274,4.135,4.135,4.1349,4.1349,4.1349,4.1693,4.1666,4.1668,4.1657,4.1618,4.1609,4.156,4.1534,4.1517,4.1514,4.1473,4.1427,4.1406,4.1399,4.1383,4.1483,4.1483,4.1483,4.1483,4.1753,4.1739,4.1731,4.1714,4.1693,4.1649,4.1649,4.161,4.1566,4.1552,4.1532,4.1509,4.1503,4.1485,4.1476,4.1461,4.1578,4.1578,4.1578,4.1804,4.1786,4.1795,4.1754,4.1721,4.1692,4.1691,4.167,4.1614,4.1581,4.1539,4.1535,4.1497,4.1488,4.1453,4.1439,4.1411,0,0]}]]